Weather History for Baton Rouge, LA

Change the Weather History Date:

Monday, May 20, 2013

  Actual Average Record
Temperature  
Mean Temperature 83 °F 77 °F  
Max Temperature 91 °F 87 °F 98 °F (1922)
Min Temperature 75 °F 66 °F 46 °F (1894)
Degree Days  
Heating Degree Days 0 0  
Month to date heating degree days 30 0  
Since 1 July heating degree days 1551 1553  
Cooling Degree Days 18 12  
Month to date cooling degree days 123 191  
Year to date cooling degree days 280 422  
Growing Degree Days 32 (Base 50)    
Moisture  
Dew Point 71 °F    
Average Humidity 73    
Maximum Humidity 94    
Minimum Humidity 52    
Precipitation  
Precipitation 0.00 in 0.15 in 3.75 in (1955)
Month to date precipitation 3.83 3.06  
Year to date precipitation 34.98 22.69  
Snow  
Snow 0.00 in - - ()
Month to date snowfall 0.0  
Since 1 July snowfall 0.0  
Snow Depth 0.00 in    
Sea Level Pressure  
Sea Level Pressure 29.95 in    
Wind  
Wind Speed 12 mph (SSE)    
Max Wind Speed 17 mph    
Max Gust Speed 24 mph    
Visibility 10 miles    
Events      
T = Trace of Precipitation, MM = Missing Value Source: NWS Daily Summary

Daily Weather History Graph

Daily Weather History Graph

Search for Another Location

Airport:

Trip Planner

Search our weather history database for the weather conditions in past years. The results will help you decide how hot, cold, wet, or windy it might be!

Date:

Astronomy

May. 20, 2013 Rise Set
Actual Time 6:07 AM CDT 7:55 PM CDT
Civil Twilight 5:40 AM CDT 8:22 PM CDT
Nautical Twilight 5:08 AM CDT 8:54 PM CDT
Astronomical Twilight 4:34 AM CDT 9:28 PM CDT
Moon 3:21 PM CDT (5/20) 2:41 AM CDT (5/20)
Length of Visible Light 14h 41m
Length of Day
13h 48m
Waxing Gibbous, 75% of the Moon is Illuminated
May 20
Waxing Gibbous
May 24
Full
May 31
Last Quarter
Jun 8
New
Jun 16
First Quarter

Hourly Weather History & Observations

Time (CDT) Temp. Heat Index Dew Point Humidity Pressure Visibility Wind Dir Wind Speed Gust Speed Precip Events Conditions
12:53 AM 75.9 °F - 73.0 °F 91% 29.96 in 10.0 mi SSE 8.1 mph - N/A   Overcast
1:53 AM 75.9 °F - 73.0 °F 91% 29.95 in 10.0 mi SE 10.4 mph - N/A   Overcast
2:46 AM 75.2 °F - 71.6 °F 89% 29.95 in 9.0 mi SSE 13.8 mph 19.6 mph N/A   Overcast
2:53 AM 75.9 °F - 72.0 °F 87% 29.94 in 9.0 mi SSE 11.5 mph - N/A   Overcast
3:49 AM 75.2 °F - 71.6 °F 89% 29.95 in 10.0 mi SSE 10.4 mph 19.6 mph N/A   Mostly Cloudy
3:53 AM 75.9 °F - 72.0 °F 87% 29.95 in 10.0 mi SSE 12.7 mph 19.6 mph N/A   Mostly Cloudy
4:48 AM 75.2 °F - 71.6 °F 89% 29.96 in 10.0 mi SE 8.1 mph - N/A   Overcast
4:53 AM 75.9 °F - 72.0 °F 87% 29.96 in 10.0 mi SE 9.2 mph - N/A   Overcast
5:53 AM 75.2 °F - 71.6 °F 89% 29.97 in 10.0 mi ESE 6.9 mph - N/A   Mostly Cloudy
6:53 AM 75.9 °F - 73.0 °F 91% 29.99 in 8.0 mi ESE 6.9 mph - N/A   Overcast
7:53 AM 77.0 °F - 73.0 °F 88% 29.99 in 10.0 mi SSE 10.4 mph - N/A   Overcast
8:53 AM 79.0 °F - 72.0 °F 79% 30.00 in 10.0 mi South 12.7 mph - N/A   Mostly Cloudy
9:19 AM 80.6 °F 84.6 °F 71.6 °F 74% 30.00 in 10.0 mi SSE 15.0 mph 19.6 mph N/A   Mostly Cloudy
9:53 AM 82.0 °F 86.3 °F 71.1 °F 69% 29.99 in 10.0 mi South 11.5 mph - N/A   Mostly Cloudy
10:53 AM 84.0 °F 88.4 °F 70.0 °F 63% 29.99 in 10.0 mi South 16.1 mph 21.9 mph N/A   Mostly Cloudy
11:53 AM 87.1 °F 92.8 °F 71.1 °F 59% 29.99 in 10.0 mi SSE 17.3 mph 24.2 mph N/A   Scattered Clouds
12:53 PM 89.1 °F 95.0 °F 71.1 °F 55% 29.97 in 10.0 mi South 15.0 mph 20.7 mph N/A   Scattered Clouds
1:53 PM 88.0 °F 92.9 °F 70.0 °F 55% 29.96 in 10.0 mi South 15.0 mph 20.7 mph N/A   Partly Cloudy
2:53 PM 90.0 °F 94.5 °F 69.1 °F 50% 29.94 in 10.0 mi South 12.7 mph - N/A   Mostly Cloudy
3:53 PM 89.1 °F 93.7 °F 69.1 °F 52% 29.93 in 10.0 mi South 13.8 mph - N/A   Scattered Clouds
4:53 PM 89.1 °F 95.0 °F 71.1 °F 55% 29.91 in 10.0 mi South 12.7 mph - N/A   Partly Cloudy
5:53 PM 87.1 °F 92.0 °F 70.0 °F 57% 29.89 in 10.0 mi South 12.7 mph - N/A   Partly Cloudy
6:53 PM 84.9 °F 89.4 °F 70.0 °F 61% 29.88 in 10.0 mi South 15.0 mph - N/A   Partly Cloudy
7:53 PM 82.9 °F 87.5 °F 71.1 °F 67% 29.90 in 10.0 mi South 10.4 mph - N/A   Scattered Clouds
8:53 PM 80.6 °F 84.6 °F 71.6 °F 74% 29.91 in 10.0 mi SSE 13.8 mph 20.7 mph N/A   Mostly Cloudy
9:53 PM 79.0 °F - 72.0 °F 79% 29.93 in 10.0 mi SSE 16.1 mph 20.7 mph N/A   Scattered Clouds
10:53 PM 79.0 °F - 73.0 °F 82% 29.94 in 10.0 mi SSE 13.8 mph 19.6 mph N/A   Clear
11:53 PM 78.1 °F - 73.0 °F 84% 29.93 in 10.0 mi SE 11.5 mph - N/A   Mostly Cloudy